sat.trackr.live / text

‹ back to catalog

STARLINK-34575

NORAD 64859 · 2025-152T

PAYLOAD ACTIVE UNKNOWN

§ Identity

Operator
Country
US
Launch date
2025-07-19
Launch site
AFWTR
Launch vehicle
Mass (kg)
RCS (m²)

Purposes: comms

External: N2YO · Heavens-Above · Gunter

§ Orbital elements

Epoch: 2026-09-20T14:04:34.415616Z

Period
93.91 min
Inclination
97.2845°
Eccentricity
0.0001964
Mean motion
15.33443009 rev/d
Perigee alt
464.2 km
Apogee alt
466.9 km
Semi-major
6,843.7 km
B*
3.4106e-4
RAAN
114.0941°
Arg perigee
91.3692°
Mean anomaly
268.7775°
Rev number
6,483

§ Raw data

STARLINK-345751 64859U 25152T   26263.58650944  .00010951  00000+0  34106-3 0  99992 64859  97.2845 114.0941 0001964  91.3692 268.7775 15.33443009 64834

JSON: /api/v1/satellites/64859 · /tle

For live sub-satellite position, see the globe view (requires WebGL).

§ Visibility from observer

Set your observer location to see the next 7 days of passes ≥ 10°. The values pass through the URL so the page stays shareable.

No JS? Fill the form by hand. The geolocation button needs JavaScript.